Year,Month,Day,Hour,Minute,Value (Times are PST for windgust in km/hr)
2020,01,10,00,00,9.60
2020,01,10,00,01,12.90
2020,01,10,00,02,11.30
2020,01,10,00,03,12.90
2020,01,10,00,04,11.30
2020,01,10,00,05,8.10
2020,01,10,00,06,9.60
2020,01,10,00,07,12.90
2020,01,10,00,08,14.50
2020,01,10,00,09,9.60
2020,01,10,00,10,11.30
2020,01,10,00,11,9.60
2020,01,10,00,12,16.10
2020,01,10,00,13,12.90
2020,01,10,00,14,12.90
2020,01,10,00,15,12.90
2020,01,10,00,16,14.50
2020,01,10,00,17,14.50
2020,01,10,00,18,9.60
2020,01,10,00,19,20.90
2020,01,10,00,20,25.70
2020,01,10,00,21,14.50
2020,01,10,00,22,19.30
2020,01,10,00,23,16.10
2020,01,10,00,24,19.30
2020,01,10,00,25,24.20
2020,01,10,00,26,19.30
2020,01,10,00,27,24.20
2020,01,10,00,28,19.30
2020,01,10,00,29,27.40
2020,01,10,00,30,24.20
2020,01,10,00,31,17.70
2020,01,10,00,32,12.90
2020,01,10,00,33,14.50
2020,01,10,00,34,19.30
2020,01,10,00,35,17.70
2020,01,10,00,36,19.30
2020,01,10,00,37,12.90
2020,01,10,00,38,16.10
2020,01,10,00,39,24.20
2020,01,10,00,40,20.90
2020,01,10,00,41,16.10
2020,01,10,00,42,24.20
2020,01,10,00,43,32.20
2020,01,10,00,44,17.70
2020,01,10,00,45,19.30
2020,01,10,00,46,20.90
2020,01,10,00,47,19.30
2020,01,10,00,48,16.10
2020,01,10,00,49,22.50
2020,01,10,00,50,17.70
2020,01,10,00,51,20.90
2020,01,10,00,52,20.90
2020,01,10,00,53,19.30
2020,01,10,00,54,19.30
2020,01,10,00,55,17.70
2020,01,10,00,56,20.90
2020,01,10,00,57,19.30
2020,01,10,00,58,22.50
2020,01,10,00,59,24.20
2020,01,10,01,00,25.70
2020,01,10,01,01,20.90
2020,01,10,01,02,17.70
2020,01,10,01,03,14.50
2020,01,10,01,04,19.30
2020,01,10,01,05,24.20
2020,01,10,01,06,24.20
2020,01,10,01,07,20.90
2020,01,10,01,08,20.90
2020,01,10,01,09,25.70
2020,01,10,01,10,20.90
2020,01,10,01,11,20.90
2020,01,10,01,12,25.70
2020,01,10,01,13,24.20
2020,01,10,01,14,22.50
2020,01,10,01,15,17.70
2020,01,10,01,16,19.30
2020,01,10,01,17,16.10
2020,01,10,01,18,25.70
2020,01,10,01,19,27.40
2020,01,10,01,20,17.70
2020,01,10,01,21,17.70
2020,01,10,01,22,24.20
2020,01,10,01,23,19.30
2020,01,10,01,24,19.30
2020,01,10,01,25,22.50
2020,01,10,01,26,24.20
2020,01,10,01,27,27.40
2020,01,10,01,28,25.70
2020,01,10,01,29,25.70
2020,01,10,01,30,29.00
2020,01,10,01,31,24.20
2020,01,10,01,32,24.20
2020,01,10,01,33,27.40
2020,01,10,01,34,30.60
2020,01,10,01,35,22.50
2020,01,10,01,36,20.90
2020,01,10,01,37,20.90
2020,01,10,01,38,22.50
2020,01,10,01,39,17.70
2020,01,10,01,40,27.40
2020,01,10,01,41,20.90
2020,01,10,01,42,20.90
2020,01,10,01,43,27.40
2020,01,10,01,44,24.20
2020,01,10,01,45,22.50
2020,01,10,01,46,20.90
2020,01,10,01,47,29.00
2020,01,10,01,48,20.90
2020,01,10,01,49,22.50
2020,01,10,01,50,25.70
2020,01,10,01,51,19.30
2020,01,10,01,52,22.50
2020,01,10,01,53,20.90
2020,01,10,01,54,29.00
2020,01,10,01,55,24.20
2020,01,10,01,56,24.20
2020,01,10,01,57,25.70
2020,01,10,01,58,17.70
2020,01,10,01,59,20.90
2020,01,10,02,00,24.20
2020,01,10,02,01,19.30
2020,01,10,02,02,20.90
2020,01,10,02,03,24.20
2020,01,10,02,04,27.40
2020,01,10,02,05,19.30
2020,01,10,02,06,16.10
2020,01,10,02,07,27.40
2020,01,10,02,08,29.00
2020,01,10,02,09,25.70
2020,01,10,02,10,24.20
2020,01,10,02,11,19.30
2020,01,10,02,12,24.20
2020,01,10,02,13,25.70
2020,01,10,02,14,25.70
2020,01,10,02,15,17.70
2020,01,10,02,16,20.90
2020,01,10,02,17,14.50
2020,01,10,02,18,24.20
2020,01,10,02,19,22.50
2020,01,10,02,20,27.40
2020,01,10,02,21,20.90
2020,01,10,02,22,19.30
2020,01,10,02,23,24.20
2020,01,10,02,24,22.50
2020,01,10,02,25,25.70
2020,01,10,02,26,19.30
2020,01,10,02,27,22.50
2020,01,10,02,28,24.20
2020,01,10,02,29,22.50
2020,01,10,02,30,25.70
2020,01,10,02,31,22.50
2020,01,10,02,32,25.70
2020,01,10,02,33,29.00
2020,01,10,02,34,22.50
2020,01,10,02,35,22.50
2020,01,10,02,36,24.20
2020,01,10,02,37,25.70
2020,01,10,02,38,25.70
2020,01,10,02,39,27.40
2020,01,10,02,40,30.60
2020,01,10,02,41,22.50
2020,01,10,02,42,17.70
2020,01,10,02,43,24.20
2020,01,10,02,44,24.20
2020,01,10,02,45,27.40
2020,01,10,02,46,29.00
2020,01,10,02,47,22.50
2020,01,10,02,48,17.70
2020,01,10,02,49,17.70
2020,01,10,02,50,20.90
2020,01,10,02,51,17.70
2020,01,10,02,52,19.30
2020,01,10,02,53,22.50
2020,01,10,02,54,20.90
2020,01,10,02,55,19.30
2020,01,10,02,56,22.50
2020,01,10,02,57,24.20
2020,01,10,02,58,22.50
2020,01,10,02,59,22.50
2020,01,10,03,00,22.50
2020,01,10,03,01,30.60
2020,01,10,03,02,22.50
2020,01,10,03,03,25.70
2020,01,10,03,04,24.20
2020,01,10,03,05,24.20
2020,01,10,03,06,19.30
2020,01,10,03,07,24.20
2020,01,10,03,08,22.50
2020,01,10,03,09,20.90
2020,01,10,03,10,27.40
2020,01,10,03,11,29.00
2020,01,10,03,12,24.20
2020,01,10,03,13,17.70
2020,01,10,03,14,19.30
2020,01,10,03,15,24.20
2020,01,10,03,16,17.70
2020,01,10,03,17,24.20
2020,01,10,03,18,27.40
2020,01,10,03,19,22.50
2020,01,10,03,20,29.00
2020,01,10,03,21,29.00
2020,01,10,03,22,27.40
2020,01,10,03,23,20.90
2020,01,10,03,24,30.60
2020,01,10,03,25,25.70
2020,01,10,03,26,24.20
2020,01,10,03,27,32.20
2020,01,10,03,28,27.40
2020,01,10,03,29,29.00
2020,01,10,03,30,32.20
2020,01,10,03,31,27.40
2020,01,10,03,32,27.40
2020,01,10,03,33,27.40
2020,01,10,03,34,32.20
2020,01,10,03,35,27.40
2020,01,10,03,36,25.70
2020,01,10,03,37,17.70
2020,01,10,03,38,33.80
2020,01,10,03,39,30.60
2020,01,10,03,40,29.00
2020,01,10,03,41,35.40
2020,01,10,03,42,27.40
2020,01,10,03,43,24.20
2020,01,10,03,44,29.00
2020,01,10,03,45,27.40
2020,01,10,03,46,22.50
2020,01,10,03,47,22.50
2020,01,10,03,48,24.20
2020,01,10,03,49,27.40
2020,01,10,03,50,30.60
2020,01,10,03,51,27.40
2020,01,10,03,52,30.60
2020,01,10,03,53,30.60
2020,01,10,03,54,29.00
2020,01,10,03,55,14.50
2020,01,10,03,56,19.30
2020,01,10,03,57,19.30
2020,01,10,03,58,20.90
2020,01,10,03,59,22.50
2020,01,10,04,00,20.90
2020,01,10,04,01,20.90
2020,01,10,04,02,19.30
2020,01,10,04,03,29.00
2020,01,10,04,04,30.60
2020,01,10,04,05,25.70
2020,01,10,04,06,22.50
2020,01,10,04,07,27.40
2020,01,10,04,08,24.20
2020,01,10,04,09,30.60
2020,01,10,04,10,22.50
2020,01,10,04,11,22.50
2020,01,10,04,12,25.70
2020,01,10,04,13,20.90
2020,01,10,04,14,17.70
2020,01,10,04,15,25.70
2020,01,10,04,16,20.90
2020,01,10,04,17,24.20
2020,01,10,04,18,20.90
2020,01,10,04,19,25.70
2020,01,10,04,20,25.70
2020,01,10,04,21,17.70
2020,01,10,04,22,19.30
2020,01,10,04,23,17.70
2020,01,10,04,24,22.50
2020,01,10,04,25,29.00
2020,01,10,04,26,25.70
2020,01,10,04,27,30.60
2020,01,10,04,28,32.20
2020,01,10,04,29,24.20
2020,01,10,04,30,20.90
2020,01,10,04,31,19.30
2020,01,10,04,32,22.50
2020,01,10,04,33,33.80
2020,01,10,04,34,25.70
2020,01,10,04,35,30.60
2020,01,10,04,36,30.60
2020,01,10,04,37,24.20
2020,01,10,04,38,22.50
2020,01,10,04,39,24.20
2020,01,10,04,40,16.10
2020,01,10,04,41,19.30
2020,01,10,04,42,20.90
2020,01,10,04,43,29.00
2020,01,10,04,44,30.60
2020,01,10,04,45,22.50
2020,01,10,04,46,22.50
2020,01,10,04,47,24.20
2020,01,10,04,48,27.40
2020,01,10,04,49,30.60
2020,01,10,04,50,29.00
2020,01,10,04,51,19.30
2020,01,10,04,52,35.40
2020,01,10,04,53,27.40
2020,01,10,04,54,33.80
2020,01,10,04,55,30.60
2020,01,10,04,56,27.40
2020,01,10,04,57,29.00
2020,01,10,04,58,32.20
2020,01,10,04,59,20.90
2020,01,10,05,00,37.00
2020,01,10,05,01,22.50
2020,01,10,05,02,29.00
2020,01,10,05,03,35.40
2020,01,10,05,04,30.60
2020,01,10,05,05,29.00
2020,01,10,05,06,30.60
2020,01,10,05,07,17.70
2020,01,10,05,08,17.70
2020,01,10,05,09,19.30
2020,01,10,05,10,24.20
2020,01,10,05,11,25.70
2020,01,10,05,12,25.70
2020,01,10,05,13,24.20
2020,01,10,05,14,24.20
2020,01,10,05,15,24.20
2020,01,10,05,16,27.40
2020,01,10,05,17,25.70
2020,01,10,05,18,25.70
2020,01,10,05,19,24.20
2020,01,10,05,20,17.70
2020,01,10,05,21,22.50
2020,01,10,05,22,27.40
2020,01,10,05,23,24.20
2020,01,10,05,24,27.40
2020,01,10,05,25,24.20
2020,01,10,05,26,24.20
2020,01,10,05,27,27.40
2020,01,10,05,28,27.40
2020,01,10,05,29,24.20
2020,01,10,05,30,29.00
2020,01,10,05,31,25.70
2020,01,10,05,32,25.70
2020,01,10,05,33,29.00
2020,01,10,05,34,30.60
2020,01,10,05,35,27.40
2020,01,10,05,36,30.60
2020,01,10,05,37,25.70
2020,01,10,05,38,27.40
2020,01,10,05,39,29.00
2020,01,10,05,40,25.70
2020,01,10,05,41,24.20
2020,01,10,05,42,27.40
2020,01,10,05,43,29.00
2020,01,10,05,44,30.60
2020,01,10,05,45,27.40
2020,01,10,05,46,29.00
2020,01,10,05,47,32.20
2020,01,10,05,48,32.20
2020,01,10,05,49,22.50
2020,01,10,05,50,30.60
2020,01,10,05,51,29.00
2020,01,10,05,52,30.60
2020,01,10,05,53,27.40
2020,01,10,05,54,27.40
2020,01,10,05,55,38.60
2020,01,10,05,56,30.60
2020,01,10,05,57,32.20
2020,01,10,05,58,25.70
2020,01,10,05,59,40.20
2020,01,10,06,00,29.00
2020,01,10,06,01,30.60
2020,01,10,06,02,33.80
2020,01,10,06,03,27.40
2020,01,10,06,04,30.60
2020,01,10,06,05,27.40
2020,01,10,06,06,35.40
2020,01,10,06,07,20.90
2020,01,10,06,08,35.40
2020,01,10,06,09,35.40
2020,01,10,06,10,30.60
2020,01,10,06,11,30.60
2020,01,10,06,12,32.20
2020,01,10,06,13,22.50
2020,01,10,06,14,27.40
2020,01,10,06,15,27.40
2020,01,10,06,16,33.80
2020,01,10,06,17,29.00
2020,01,10,06,18,27.40
2020,01,10,06,19,38.60
2020,01,10,06,20,33.80
2020,01,10,06,21,32.20
2020,01,10,06,22,33.80
2020,01,10,06,23,37.00
2020,01,10,06,24,30.60
2020,01,10,06,25,30.60
2020,01,10,06,26,35.40
2020,01,10,06,27,33.80
2020,01,10,06,28,35.40
2020,01,10,06,29,25.70
2020,01,10,06,30,38.60
2020,01,10,06,31,32.20
2020,01,10,06,32,25.70
2020,01,10,06,33,29.00
2020,01,10,06,34,29.00
2020,01,10,06,35,29.00
2020,01,10,06,36,24.20
2020,01,10,06,37,37.00
2020,01,10,06,38,32.20
2020,01,10,06,39,27.40
2020,01,10,06,40,30.60
2020,01,10,06,41,27.40
2020,01,10,06,42,25.70
2020,01,10,06,43,22.50
2020,01,10,06,44,27.40
2020,01,10,06,45,24.20
2020,01,10,06,46,24.20
2020,01,10,06,47,22.50
2020,01,10,06,48,22.50
2020,01,10,06,49,25.70
2020,01,10,06,50,24.20
2020,01,10,06,51,20.90
2020,01,10,06,52,20.90
2020,01,10,06,53,25.70
2020,01,10,06,54,22.50
2020,01,10,06,55,20.90
2020,01,10,06,56,22.50
2020,01,10,06,57,25.70
2020,01,10,06,58,27.40
2020,01,10,06,59,25.70
2020,01,10,07,00,17.70
2020,01,10,07,01,25.70
2020,01,10,07,02,20.90
2020,01,10,07,03,20.90
2020,01,10,07,04,27.40
2020,01,10,07,05,25.70
2020,01,10,07,06,19.30
2020,01,10,07,07,19.30
2020,01,10,07,08,20.90
2020,01,10,07,09,27.40
2020,01,10,07,10,27.40
2020,01,10,07,11,27.40
2020,01,10,07,12,20.90
2020,01,10,07,13,19.30
2020,01,10,07,14,19.30
2020,01,10,07,15,20.90
2020,01,10,07,16,29.00
2020,01,10,07,17,29.00
2020,01,10,07,18,25.70
2020,01,10,07,19,20.90
2020,01,10,07,20,29.00
2020,01,10,07,21,29.00
2020,01,10,07,22,29.00
2020,01,10,07,23,24.20
2020,01,10,07,24,22.50
2020,01,10,07,25,32.20
2020,01,10,07,26,30.60
2020,01,10,07,27,32.20
2020,01,10,07,28,30.60
2020,01,10,07,29,29.00
2020,01,10,07,30,32.20
2020,01,10,07,31,35.40
2020,01,10,07,32,30.60
2020,01,10,07,33,33.80
2020,01,10,07,34,29.00
2020,01,10,07,35,32.20
2020,01,10,07,36,32.20
2020,01,10,07,37,27.40
2020,01,10,07,38,25.70
2020,01,10,07,39,29.00
2020,01,10,07,40,29.00
2020,01,10,07,41,27.40
2020,01,10,07,42,37.00
2020,01,10,07,43,27.40
2020,01,10,07,44,25.70
2020,01,10,07,45,20.90
2020,01,10,07,46,33.80
2020,01,10,07,47,29.00
2020,01,10,07,48,30.60
2020,01,10,07,49,27.40
2020,01,10,07,50,30.60
2020,01,10,07,51,27.40
2020,01,10,07,52,22.50
2020,01,10,07,53,30.60
2020,01,10,07,54,33.80
2020,01,10,07,55,25.70
2020,01,10,07,56,30.60
2020,01,10,07,57,32.20
2020,01,10,07,58,30.60
2020,01,10,07,59,29.00
2020,01,10,08,00,30.60
2020,01,10,08,01,24.20
2020,01,10,08,02,22.50
2020,01,10,08,03,30.60
2020,01,10,08,04,27.40
2020,01,10,08,05,40.20
2020,01,10,08,06,30.60
2020,01,10,08,07,27.40
2020,01,10,08,08,33.80
2020,01,10,08,09,24.20
2020,01,10,08,10,30.60
2020,01,10,08,11,27.40
2020,01,10,08,12,25.70
2020,01,10,08,13,29.00
2020,01,10,08,14,35.40
2020,01,10,08,15,37.00
2020,01,10,08,16,24.20
2020,01,10,08,17,29.00
2020,01,10,08,18,35.40
2020,01,10,08,19,22.50
2020,01,10,08,20,32.20
2020,01,10,08,21,40.20
2020,01,10,08,22,25.70
2020,01,10,08,23,25.70
2020,01,10,08,24,30.60
2020,01,10,08,25,33.80
2020,01,10,08,26,22.50
2020,01,10,08,27,27.40
2020,01,10,08,28,25.70
2020,01,10,08,29,33.80
2020,01,10,08,30,37.00
2020,01,10,08,31,29.00
2020,01,10,08,32,24.20
2020,01,10,08,33,22.50
2020,01,10,08,34,24.20
2020,01,10,08,35,24.20
2020,01,10,08,36,24.20
2020,01,10,08,37,20.90
2020,01,10,08,38,24.20
2020,01,10,08,39,20.90
2020,01,10,08,40,19.30
2020,01,10,08,41,29.00
2020,01,10,08,42,30.60
2020,01,10,08,43,24.20
2020,01,10,08,44,22.50
2020,01,10,08,45,27.40
2020,01,10,08,46,19.30
2020,01,10,08,47,25.70
2020,01,10,08,48,27.40
2020,01,10,08,49,29.00
2020,01,10,08,50,22.50
2020,01,10,08,51,24.20
2020,01,10,08,52,29.00
2020,01,10,08,53,22.50
2020,01,10,08,54,19.30
2020,01,10,08,55,27.40
2020,01,10,08,56,29.00
2020,01,10,08,57,20.90
2020,01,10,08,58,20.90
2020,01,10,08,59,22.50
2020,01,10,09,00,30.60
2020,01,10,09,01,25.70
2020,01,10,09,02,22.50
2020,01,10,09,03,22.50
2020,01,10,09,04,19.30
2020,01,10,09,05,32.20
2020,01,10,09,06,37.00
2020,01,10,09,07,30.60
2020,01,10,09,08,24.20
2020,01,10,09,09,25.70
2020,01,10,09,10,25.70
2020,01,10,09,11,24.20
2020,01,10,09,12,22.50
2020,01,10,09,13,25.70
2020,01,10,09,14,19.30
2020,01,10,09,15,25.70
2020,01,10,09,16,22.50
2020,01,10,09,17,27.40
2020,01,10,09,18,22.50
2020,01,10,09,19,25.70
2020,01,10,09,20,27.40
2020,01,10,09,21,27.40
2020,01,10,09,22,25.70
2020,01,10,09,23,38.60
2020,01,10,09,24,38.60
2020,01,10,09,25,27.40
2020,01,10,09,26,29.00
2020,01,10,09,27,25.70
2020,01,10,09,28,20.90
2020,01,10,09,29,22.50
2020,01,10,09,30,24.20
2020,01,10,09,31,20.90
2020,01,10,09,32,35.40
2020,01,10,09,33,27.40
2020,01,10,09,34,22.50
2020,01,10,09,35,20.90
2020,01,10,09,36,20.90
2020,01,10,09,37,19.30
2020,01,10,09,38,19.30
2020,01,10,09,39,32.20
2020,01,10,09,40,25.70
2020,01,10,09,41,25.70
2020,01,10,09,42,32.20
2020,01,10,09,43,30.60
2020,01,10,09,44,29.00
2020,01,10,09,45,29.00
2020,01,10,09,46,30.60
2020,01,10,09,47,30.60
2020,01,10,09,48,25.70
2020,01,10,09,49,22.50
2020,01,10,09,50,16.10
2020,01,10,09,51,24.20
2020,01,10,09,52,22.50
2020,01,10,09,53,22.50
2020,01,10,09,54,19.30
2020,01,10,09,55,20.90
2020,01,10,09,56,19.30
2020,01,10,09,57,19.30
2020,01,10,09,58,16.10
2020,01,10,09,59,22.50
2020,01,10,10,00,22.50
2020,01,10,10,01,20.90
2020,01,10,10,02,19.30
2020,01,10,10,03,14.50
2020,01,10,10,04,17.70
2020,01,10,10,05,16.10
2020,01,10,10,06,22.50
2020,01,10,10,07,22.50
2020,01,10,10,08,25.70
2020,01,10,10,09,22.50
2020,01,10,10,10,17.70
2020,01,10,10,11,19.30
2020,01,10,10,12,20.90
2020,01,10,10,13,35.40
2020,01,10,10,14,29.00
2020,01,10,10,15,22.50
2020,01,10,10,16,24.20
2020,01,10,10,17,29.00
2020,01,10,10,18,27.40
2020,01,10,10,19,30.60
2020,01,10,10,20,25.70
2020,01,10,10,21,24.20
2020,01,10,10,22,27.40
2020,01,10,10,23,20.90
2020,01,10,10,24,24.20
2020,01,10,10,25,11.30
2020,01,10,10,26,22.50
2020,01,10,10,27,30.60
2020,01,10,10,28,29.00
2020,01,10,10,29,14.50
2020,01,10,10,30,27.40
2020,01,10,10,31,27.40
2020,01,10,10,32,16.10
2020,01,10,10,33,12.90
2020,01,10,10,34,11.30
2020,01,10,10,35,12.90
2020,01,10,10,36,20.90
2020,01,10,10,37,19.30
2020,01,10,10,38,17.70
2020,01,10,10,39,16.10
2020,01,10,10,40,14.50
2020,01,10,10,41,16.10
2020,01,10,10,42,16.10
2020,01,10,10,43,16.10
2020,01,10,10,44,14.50
2020,01,10,10,45,14.50
2020,01,10,10,46,8.10
2020,01,10,10,47,14.50
2020,01,10,10,48,14.50
2020,01,10,10,49,17.70
2020,01,10,10,50,8.10
2020,01,10,10,51,9.60
2020,01,10,10,52,9.60
2020,01,10,10,53,9.60
2020,01,10,10,54,11.30
2020,01,10,10,55,11.30
2020,01,10,10,56,11.30
2020,01,10,10,57,6.40
2020,01,10,10,58,8.10
2020,01,10,10,59,6.40
2020,01,10,11,00,3.20
2020,01,10,11,01,3.20
2020,01,10,11,02,3.20
2020,01,10,11,03,8.10
2020,01,10,11,04,1.60
2020,01,10,11,05,3.20
2020,01,10,11,06,6.40
2020,01,10,11,07,3.20
2020,01,10,11,08,3.20
2020,01,10,11,09,9.60
2020,01,10,11,10,9.60
2020,01,10,11,11,8.10
2020,01,10,11,12,1.60
2020,01,10,11,13,6.40
2020,01,10,11,14,8.10
2020,01,10,11,15,11.30
2020,01,10,11,16,9.60
2020,01,10,11,17,6.40
2020,01,10,11,18,3.20
2020,01,10,11,19,3.20
2020,01,10,11,20,1.60
2020,01,10,11,21,3.20
2020,01,10,11,22,3.20
2020,01,10,11,23,1.60
2020,01,10,11,24,6.40
2020,01,10,11,25,8.10
2020,01,10,11,26,11.30
2020,01,10,11,27,9.60
2020,01,10,11,28,6.40
2020,01,10,11,29,1.60
2020,01,10,11,30,1.60
2020,01,10,11,31,8.10
2020,01,10,11,32,6.40
2020,01,10,11,33,8.10
2020,01,10,11,34,8.10
2020,01,10,11,35,6.40
2020,01,10,11,36,1.60
2020,01,10,11,37,6.40
2020,01,10,11,38,8.10
2020,01,10,11,39,6.40
2020,01,10,11,40,6.40
2020,01,10,11,41,6.40
2020,01,10,11,42,3.20
2020,01,10,11,43,1.60
2020,01,10,11,50,1.60
2020,01,10,12,02,1.60
2020,01,10,12,03,6.40
2020,01,10,12,04,1.60
2020,01,10,12,05,3.20
2020,01,10,12,06,3.20
2020,01,10,12,19,8.10
2020,01,10,12,20,25.70
2020,01,10,12,21,27.40
2020,01,10,12,22,22.50
2020,01,10,12,23,27.40
2020,01,10,12,24,27.40
2020,01,10,12,25,33.80
2020,01,10,12,26,32.20
2020,01,10,12,27,24.20
2020,01,10,12,28,33.80
2020,01,10,12,29,32.20
2020,01,10,12,30,32.20
2020,01,10,12,31,32.20
2020,01,10,12,32,25.70
2020,01,10,12,33,30.60
2020,01,10,12,34,35.40
2020,01,10,12,35,32.20
2020,01,10,12,36,30.60
2020,01,10,12,37,29.00
2020,01,10,12,38,30.60
2020,01,10,12,39,29.00
2020,01,10,12,40,35.40
2020,01,10,12,41,29.00
2020,01,10,12,42,32.20
2020,01,10,12,43,29.00
2020,01,10,12,44,27.40
2020,01,10,12,45,30.60
2020,01,10,12,46,32.20
2020,01,10,12,47,33.80
2020,01,10,12,48,32.20
2020,01,10,12,49,29.00
2020,01,10,12,50,27.40
2020,01,10,12,51,32.20
2020,01,10,12,52,33.80
2020,01,10,12,53,33.80
2020,01,10,12,54,27.40
2020,01,10,12,55,27.40
2020,01,10,12,56,32.20
2020,01,10,12,57,33.80
2020,01,10,12,58,29.00
2020,01,10,12,59,22.50
2020,01,10,13,00,29.00
2020,01,10,13,01,32.20
2020,01,10,13,02,22.50
2020,01,10,13,03,22.50
2020,01,10,13,04,22.50
2020,01,10,13,05,20.90
2020,01,10,13,06,22.50
2020,01,10,13,07,27.40
2020,01,10,13,08,22.50
2020,01,10,13,09,25.70
2020,01,10,13,10,25.70
2020,01,10,13,11,19.30
2020,01,10,13,12,22.50
2020,01,10,13,13,25.70
2020,01,10,13,14,24.20
2020,01,10,13,15,22.50
2020,01,10,13,16,27.40
2020,01,10,13,17,22.50
2020,01,10,13,18,20.90
2020,01,10,13,19,32.20
2020,01,10,13,20,22.50
2020,01,10,13,21,20.90
2020,01,10,13,22,24.20
2020,01,10,13,23,25.70
2020,01,10,13,24,19.30
2020,01,10,13,25,22.50
2020,01,10,13,26,19.30
2020,01,10,13,27,14.50
2020,01,10,13,28,25.70
2020,01,10,13,29,22.50
2020,01,10,13,30,17.70
2020,01,10,13,31,19.30
2020,01,10,13,32,17.70
2020,01,10,13,33,29.00
2020,01,10,13,34,16.10
2020,01,10,13,35,19.30
2020,01,10,13,36,14.50
2020,01,10,13,37,22.50
2020,01,10,13,38,19.30
2020,01,10,13,39,17.70
2020,01,10,13,40,19.30
2020,01,10,13,41,16.10
2020,01,10,13,42,17.70
2020,01,10,13,43,19.30
2020,01,10,13,44,27.40
2020,01,10,13,45,35.40
2020,01,10,13,46,32.20
2020,01,10,13,47,24.20
2020,01,10,13,48,33.80
2020,01,10,13,49,30.60
2020,01,10,13,50,30.60
2020,01,10,13,51,33.80
2020,01,10,13,52,27.40
2020,01,10,13,53,35.40
2020,01,10,13,54,25.70
2020,01,10,13,55,30.60
2020,01,10,13,56,33.80
2020,01,10,13,57,25.70
2020,01,10,13,58,30.60
2020,01,10,13,59,32.20
2020,01,10,14,00,29.00
2020,01,10,14,01,33.80
2020,01,10,14,02,30.60
2020,01,10,14,03,27.40
2020,01,10,14,04,29.00
2020,01,10,14,05,29.00
2020,01,10,14,06,32.20
2020,01,10,14,07,29.00
2020,01,10,14,08,27.40
2020,01,10,14,09,37.00
2020,01,10,14,10,27.40
2020,01,10,14,11,25.70
2020,01,10,14,12,25.70
2020,01,10,14,13,27.40
2020,01,10,14,14,29.00
2020,01,10,14,15,29.00
2020,01,10,14,16,20.90
2020,01,10,14,17,22.50
2020,01,10,14,18,25.70
2020,01,10,14,19,25.70
2020,01,10,14,20,33.80
2020,01,10,14,21,30.60
2020,01,10,14,22,33.80
2020,01,10,14,23,30.60
2020,01,10,14,24,24.20
2020,01,10,14,25,19.30
2020,01,10,14,26,30.60
2020,01,10,14,27,30.60
2020,01,10,14,28,32.20
2020,01,10,14,29,29.00
2020,01,10,14,30,30.60
2020,01,10,14,31,35.40
2020,01,10,14,32,32.20
2020,01,10,14,33,24.20
2020,01,10,14,34,20.90
2020,01,10,14,35,30.60
2020,01,10,14,36,25.70
2020,01,10,14,37,22.50
2020,01,10,14,38,25.70
2020,01,10,14,39,22.50
2020,01,10,14,40,29.00
2020,01,10,14,41,27.40
2020,01,10,14,42,32.20
2020,01,10,14,43,30.60
2020,01,10,14,44,22.50
2020,01,10,14,45,25.70
2020,01,10,14,46,24.20
2020,01,10,14,47,27.40
2020,01,10,14,48,22.50
2020,01,10,14,49,29.00
2020,01,10,14,50,29.00
2020,01,10,14,51,30.60
2020,01,10,14,52,29.00
2020,01,10,14,53,33.80
2020,01,10,14,54,33.80
2020,01,10,14,55,27.40
2020,01,10,14,56,30.60
2020,01,10,14,57,27.40
2020,01,10,14,58,24.20
2020,01,10,14,59,24.20
2020,01,10,15,00,33.80
2020,01,10,15,01,25.70
2020,01,10,15,02,27.40
2020,01,10,15,03,24.20
2020,01,10,15,04,29.00
2020,01,10,15,05,24.20
2020,01,10,15,06,29.00
2020,01,10,15,07,29.00
2020,01,10,15,08,30.60
2020,01,10,15,09,25.70
2020,01,10,15,10,22.50
2020,01,10,15,11,19.30
2020,01,10,15,12,20.90
2020,01,10,15,13,24.20
2020,01,10,15,14,29.00
2020,01,10,15,15,29.00
2020,01,10,15,16,29.00
2020,01,10,15,17,20.90
2020,01,10,15,18,24.20
2020,01,10,15,19,27.40
2020,01,10,15,20,27.40
2020,01,10,15,21,27.40
2020,01,10,15,22,30.60
2020,01,10,15,23,33.80
2020,01,10,15,24,32.20
2020,01,10,15,25,32.20
2020,01,10,15,26,20.90
2020,01,10,15,27,25.70
2020,01,10,15,28,22.50
2020,01,10,15,29,29.00
2020,01,10,15,30,24.20
2020,01,10,15,31,29.00
2020,01,10,15,32,32.20
2020,01,10,15,33,30.60
2020,01,10,15,34,22.50
2020,01,10,15,35,27.40
2020,01,10,15,36,25.70
2020,01,10,15,37,27.40
2020,01,10,15,38,30.60
2020,01,10,15,39,29.00
2020,01,10,15,40,30.60
2020,01,10,15,41,25.70
2020,01,10,15,42,33.80
2020,01,10,15,43,35.40
2020,01,10,15,44,37.00
2020,01,10,15,45,30.60
2020,01,10,15,46,32.20
2020,01,10,15,47,30.60
2020,01,10,15,48,22.50
2020,01,10,15,49,27.40
2020,01,10,15,50,29.00
2020,01,10,15,51,29.00
2020,01,10,15,52,33.80
2020,01,10,15,53,38.60
2020,01,10,15,54,29.00
2020,01,10,15,55,20.90
2020,01,10,15,56,37.00
2020,01,10,15,57,35.40
2020,01,10,15,58,35.40
2020,01,10,15,59,29.00
2020,01,10,16,00,24.20
2020,01,10,16,01,30.60
2020,01,10,16,02,32.20
2020,01,10,16,03,37.00
2020,01,10,16,04,25.70
2020,01,10,16,05,29.00
2020,01,10,16,06,35.40
2020,01,10,16,07,30.60
2020,01,10,16,08,37.00
2020,01,10,16,09,33.80
2020,01,10,16,10,29.00
2020,01,10,16,11,33.80
2020,01,10,16,12,29.00
2020,01,10,16,13,35.40
2020,01,10,16,14,29.00
2020,01,10,16,15,30.60
2020,01,10,16,16,32.20
2020,01,10,16,17,32.20
2020,01,10,16,18,37.00
2020,01,10,16,19,35.40
2020,01,10,16,20,24.20
2020,01,10,16,21,22.50
2020,01,10,16,22,27.40
2020,01,10,16,23,20.90
2020,01,10,16,24,25.70
2020,01,10,16,25,27.40
2020,01,10,16,26,29.00
2020,01,10,16,27,25.70
2020,01,10,16,28,27.40
2020,01,10,16,29,25.70
2020,01,10,16,30,32.20
2020,01,10,16,31,24.20
2020,01,10,16,32,24.20
2020,01,10,16,33,32.20
2020,01,10,16,34,24.20
2020,01,10,16,35,27.40
2020,01,10,16,36,29.00
2020,01,10,16,37,29.00
2020,01,10,16,38,17.70
2020,01,10,16,39,24.20
2020,01,10,16,40,29.00
2020,01,10,16,41,30.60
2020,01,10,16,42,25.70
2020,01,10,16,43,25.70
2020,01,10,16,44,29.00
2020,01,10,16,45,25.70
2020,01,10,16,46,27.40
2020,01,10,16,47,33.80
2020,01,10,16,48,27.40
2020,01,10,16,49,27.40
2020,01,10,16,50,22.50
2020,01,10,16,51,35.40
2020,01,10,16,52,27.40
2020,01,10,16,53,25.70
2020,01,10,16,54,25.70
2020,01,10,16,55,33.80
2020,01,10,16,56,25.70
2020,01,10,16,57,30.60
2020,01,10,16,58,35.40
2020,01,10,16,59,27.40
2020,01,10,17,00,19.30
2020,01,10,17,01,20.90
2020,01,10,17,02,20.90
2020,01,10,17,03,17.70
2020,01,10,17,04,20.90
2020,01,10,17,05,24.20
2020,01,10,17,06,24.20
2020,01,10,17,07,24.20
2020,01,10,17,08,29.00
2020,01,10,17,09,19.30
2020,01,10,17,10,35.40
2020,01,10,17,11,24.20
2020,01,10,17,12,24.20
2020,01,10,17,13,33.80
2020,01,10,17,14,22.50
2020,01,10,17,15,32.20
2020,01,10,17,16,25.70
2020,01,10,17,17,29.00
2020,01,10,17,18,29.00
2020,01,10,17,19,22.50
2020,01,10,17,20,24.20
2020,01,10,17,21,24.20
2020,01,10,17,22,20.90
2020,01,10,17,23,17.70
2020,01,10,17,24,32.20
2020,01,10,17,25,24.20
2020,01,10,17,26,22.50
2020,01,10,17,27,29.00
2020,01,10,17,28,27.40
2020,01,10,17,29,22.50
2020,01,10,17,30,27.40
2020,01,10,17,31,30.60
2020,01,10,17,32,22.50
2020,01,10,17,33,29.00
2020,01,10,17,34,27.40
2020,01,10,17,35,25.70
2020,01,10,17,36,25.70
2020,01,10,17,37,25.70
2020,01,10,17,38,25.70
2020,01,10,17,39,25.70
2020,01,10,17,40,29.00
2020,01,10,17,41,25.70
2020,01,10,17,42,19.30
2020,01,10,17,43,27.40
2020,01,10,17,44,25.70
2020,01,10,17,45,24.20
2020,01,10,17,46,22.50
2020,01,10,17,47,22.50
2020,01,10,17,48,17.70
2020,01,10,17,49,19.30
2020,01,10,17,50,17.70
2020,01,10,17,51,12.90